• In Netherlands
  • List of Countries
  • For 7 days
  • Water Temperature
  • Satellite Maps
  • Weather Map
  • Weather Widgets
  • user-avatar
    Login

    Hourly Weather Luanda

    Today, 20 September, Wednesday

    Time Temperature Precipitation Wind Pressure Humidity
    00:00 +25°C° 0 mm 3 mps 756 mmHg 81%
    01:00 +25°C° 0 mm 3 mps 755 mmHg 82%
    02:00 +25°C° 0 mm 3 mps 755 mmHg 83%
    03:00 +25°C° 0 mm 3 mps 755 mmHg 83%
    04:00 +24°C° 0 mm 3 mps 755 mmHg 84%
    05:00 +25°C° 0 mm 3 mps 755 mmHg 82%
    06:00 +25°C° 0 mm 3 mps 755 mmHg 81%
    07:00 +25°C° 0 mm 3 mps 755 mmHg 79%
    08:00 +27°C° 0 mm 3 mps 755 mmHg 69%
    09:00 +29°C° 0 mm 3 mps 755 mmHg 60%
    10:00 +31°C° 0 mm 3 mps 755 mmHg 50%
    11:00 +34°C° 0 mm 3 mps 754 mmHg 47%
    12:00 +35°C° 0 mm 4 mps 754 mmHg 44%
    13:00 +36°C° 0 mm 5 mps 753 mmHg 41%
    14:00 +35°C° 0 mm 5 mps 753 mmHg 46%
    15:00 +33°C° 0 mm 6 mps 752 mmHg 51%
    16:00 +32°C° 0 mm 6 mps 752 mmHg 55%
    17:00 +29°C° 0 mm 6 mps 752 mmHg 62%
    18:00 +28°C° 0 mm 6 mps 752 mmHg 69%
    19:00 +26°C° 0 mm 5 mps 753 mmHg 75%
    20:00 +26°C° 0 mm 4 mps 754 mmHg 77%
    21:00 +26°C° 0 mm 3 mps 754 mmHg 78%
    22:00 +26°C° 0 mm 2 mps 755 mmHg 79%
    23:00 +26°C° 0 mm 2 mps 755 mmHg 79%

    Tomorrow, 21 September, Thursday

    Time Temperature Precipitation Wind Pressure Humidity
    00:00 +26°C° 0 mm 2 mps 755 mmHg 78%
    01:00 +26°C° 0 mm 2 mps 755 mmHg 77%
    02:00 +25°C° 0 mm 2 mps 755 mmHg 78%
    03:00 +25°C° 0 mm 3 mps 755 mmHg 79%
    04:00 +25°C° 0 mm 3 mps 754 mmHg 79%
    05:00 +25°C° 0 mm 3 mps 755 mmHg 78%
    06:00 +25°C° 0 mm 3 mps 755 mmHg 77%
    07:00 +25°C° 0 mm 3 mps 756 mmHg 76%
    08:00 +27°C° 0 mm 3 mps 756 mmHg 69%
    09:00 +29°C° 0 mm 3 mps 756 mmHg 61%
    10:00 +30°C° 0 mm 3 mps 756 mmHg 54%
    11:00 +31°C° 0 mm 3 mps 755 mmHg 51%
    12:00 +33°C° 0 mm 4 mps 754 mmHg 48%
    13:00 +34°C° 0 mm 5 mps 754 mmHg 45%
    14:00 +33°C° 0 mm 5 mps 753 mmHg 48%
    15:00 +32°C° 0 mm 5 mps 753 mmHg 52%
    16:00 +32°C° 0 mm 5 mps 752 mmHg 55%
    17:00 +29°C° 0 mm 5 mps 753 mmHg 62%
    18:00 +27°C° 0 mm 5 mps 753 mmHg 69%
    19:00 +26°C° 0 mm 5 mps 754 mmHg 76%
    20:00 +26°C° 0 mm 4 mps 754 mmHg 77%
    21:00 +25°C° 0 mm 4 mps 755 mmHg 78%
    22:00 +25°C° 0 mm 3 mps 755 mmHg 79%
    23:00 +25°C° 0 mm 3 mps 755 mmHg 79%

    Day after tomorrow, 22 September, Friday

    Time Temperature Precipitation Wind Pressure Humidity
    00:00 +25°C° 0 mm 3 mps 755 mmHg 79%
    01:00 +25°C° 0 mm 3 mps 754 mmHg 79%
    02:00 +25°C° 0.1 mm 3 mps 754 mmHg 79%
    03:00 +25°C° 0.1 mm 3 mps 754 mmHg 78%
    04:00 +25°C° 0.1 mm 3 mps 754 mmHg 77%
    05:00 +25°C° 0 mm 2 mps 754 mmHg 76%
    06:00 +25°C° 0 mm 2 mps 755 mmHg 74%
    07:00 +25°C° 0 mm 2 mps 756 mmHg 73%
    08:00 +27°C° 0 mm 2 mps 756 mmHg 66%
    09:00 +29°C° 0 mm 2 mps 756 mmHg 59%
    10:00 +30°C° 0 mm 2 mps 756 mmHg 52%
    11:00 +31°C° 0 mm 3 mps 755 mmHg 49%
    12:00 +33°C° 0 mm 3 mps 754 mmHg 47%
    13:00 +34°C° 0 mm 4 mps 753 mmHg 44%
    14:00 +33°C° 0 mm 4 mps 753 mmHg 48%
    15:00 +32°C° 0 mm 5 mps 752 mmHg 52%
    16:00 +30°C° 0 mm 5 mps 752 mmHg 56%
    17:00 +28°C° 0 mm 5 mps 752 mmHg 62%
    18:00 +27°C° 0 mm 4 mps 753 mmHg 68%
    19:00 +26°C° 0 mm 4 mps 754 mmHg 74%
    20:00 +25°C° 0 mm 4 mps 754 mmHg 76%
    21:00 +25°C° 0 mm 4 mps 755 mmHg 78%
    22:00 +25°C° 0 mm 4 mps 755 mmHg 81%
    23:00 +25°C° 0 mm 4 mps 755 mmHg 80%

    23 September, Saturday

    Time Temperature Precipitation Wind Pressure Humidity
    00:00 +25°C° 0 mm 3 mps 755 mmHg 79%
    01:00 +25°C° 0 mm 3 mps 755 mmHg 78%
    02:00 +25°C° 0.1 mm 2 mps 755 mmHg 77%
    03:00 +25°C° 0.1 mm 2 mps 754 mmHg 77%
    04:00 +25°C° 0.1 mm 2 mps 754 mmHg 77%
    05:00 +25°C° 0.3 mm 2 mps 755 mmHg 77%
    06:00 +25°C° 0.3 mm 2 mps 755 mmHg 77%
    07:00 +25°C° 0.3 mm 2 mps 756 mmHg 77%
    08:00 +26°C° 0 mm 2 mps 756 mmHg 70%
    09:00 +28°C° 0 mm 2 mps 756 mmHg 63%
    10:00 +29°C° 0 mm 2 mps 756 mmHg 56%
    11:00 +30°C° 0 mm 3 mps 755 mmHg 53%
    12:00 +31°C° 0 mm 3 mps 754 mmHg 50%
    13:00 +33°C° 0 mm 4 mps 753 mmHg 47%
    14:00 +32°C° 0 mm 4 mps 753 mmHg 50%
    15:00 +30°C° 0 mm 5 mps 753 mmHg 53%
    16:00 +29°C° 0 mm 5 mps 752 mmHg 56%
    17:00 +28°C° 0 mm 5 mps 753 mmHg 62%
    18:00 +27°C° 0 mm 5 mps 754 mmHg 68%
    19:00 +26°C° 0 mm 5 mps 754 mmHg 74%
    20:00 +25°C° 0 mm 4 mps 755 mmHg 76%
    21:00 +25°C° 0 mm 4 mps 756 mmHg 77%
    22:00 +25°C° 0 mm 4 mps 756 mmHg 78%
    23:00 +25°C° 0 mm 4 mps 756 mmHg 78%

    24 September, Sunday

    Time Temperature Precipitation Wind Pressure Humidity
    00:00 +25°C° 0 mm 3 mps 756 mmHg 78%
    01:00 +25°C° 0 mm 3 mps 755 mmHg 78%
    02:00 +25°C° 0.1 mm 3 mps 755 mmHg 78%
    03:00 +25°C° 0.1 mm 2 mps 755 mmHg 77%
    04:00 +25°C° 0.1 mm 2 mps 755 mmHg 77%
    05:00 +25°C° 0 mm 2 mps 756 mmHg 76%
    06:00 +25°C° 0 mm 2 mps 756 mmHg 75%
    07:00 +25°C° 0 mm 2 mps 756 mmHg 74%
    08:00 +26°C° 0 mm 2 mps 756 mmHg 68%
    09:00 +28°C° 0 mm 2 mps 756 mmHg 61%
    10:00 +29°C° 0 mm 2 mps 757 mmHg 55%
    11:00 +30°C° 0 mm 3 mps 756 mmHg 52%
    12:00 +31°C° 0 mm 3 mps 755 mmHg 49%
    13:00 +33°C° 0 mm 3 mps 754 mmHg 46%
    14:00 +31°C° 0 mm 3 mps 754 mmHg 47%
    15:00 +32°C° 0 mm 4 mps 753 mmHg 49%
    16:00 +30°C° 0 mm 4 mps 752 mmHg 51%
    17:00 +29°C° 0 mm 4 mps 753 mmHg 57%
    18:00 +27°C° 0 mm 3 mps 754 mmHg 63%
    19:00 +26°C° 0 mm 3 mps 754 mmHg 70%
    20:00 +26°C° 0 mm 3 mps 754 mmHg 72%
    21:00 +25°C° 0 mm 3 mps 755 mmHg 73%
    22:00 +25°C° 0 mm 3 mps 755 mmHg 75%
    23:00 +25°C° 0 mm 3 mps 755 mmHg 77%

    25 September, Monday

    Time Temperature Precipitation Wind Pressure Humidity
    00:00 +25°C° 0 mm 3 mps 754 mmHg 79%
    01:00 +24°C° 0 mm 3 mps 754 mmHg 81%
    02:00 +24°C° 0 mm 3 mps 754 mmHg 81%
    03:00 +24°C° 0 mm 2 mps 754 mmHg 81%
    04:00 +24°C° 0 mm 2 mps 754 mmHg 81%
    05:00 +24°C° 0 mm 2 mps 754 mmHg 80%
    06:00 +24°C° 0 mm 2 mps 755 mmHg 79%
    07:00 +25°C° 0 mm 2 mps 755 mmHg 79%
    08:00 +26°C° 0 mm 1 mps 755 mmHg 71%
    09:00 +28°C° 0 mm 1 mps 755 mmHg 64%
    10:00 +29°C° 0 mm 1 mps 755 mmHg 57%
    11:00 +30°C° 0 mm 2 mps 754 mmHg 53%
    12:00 +31°C° 0 mm 2 mps 753 mmHg 50%
    13:00 +33°C° 0 mm 3 mps 752 mmHg 46%
    14:00 +33°C° 0 mm 3 mps 752 mmHg 48%
    15:00 +32°C° 0 mm 4 mps 752 mmHg 50%
    16:00 +32°C° 0 mm 4 mps 751 mmHg 52%
    17:00 +29°C° 0 mm 4 mps 752 mmHg 58%
    18:00 +28°C° 0 mm 4 mps 752 mmHg 65%
    19:00 +26°C° 0 mm 4 mps 752 mmHg 71%
    20:00 +26°C° 0 mm 4 mps 753 mmHg 73%
    21:00 +25°C° 0 mm 4 mps 753 mmHg 75%
    22:00 +25°C° 0 mm 4 mps 754 mmHg 77%
    23:00 +25°C° 0 mm 3 mps 754 mmHg 78%
    Show more